Location: Unspecified
(0.0000°N, 0.0000°E)
Time: 19:32:24
(UTC+00:00)

Vanguard 1 Rocket - Pass Details

Date: 17 April 2026
Orbit: 655 x 4212 km, 34.3° (Epoch: 17 May)

Event Time Altitude Azimuth Distance (km) Brightness Sun altitude
Rises 02:17:09 0° 316° (NW) 7,796 12.0 -54.3°
Reaches altitude 10° 02:26:16 10° 333° (NNW) 6,052 11.5 -52.1°
Maximum altitude 02:36:09 17° 8° (N) 4,431 11.0 -49.7°
Drops below altitude 10° 02:43:11 10° 45° (NE) 4,151 11.2 -48.0°
Sets 02:47:28 0° 66° (ENE) 4,582 11.7 -47.0°
